[[{"header":{"parameterUnit":"m.s-1","parameterCategory":2,"la1":30.2991,"la2":30.254,"lo1":-89.0895,"lo2":-89.0444,"dy":0.0017,"dx":0.0017,"nx":28,"ny":28,"refTime":"2026-02-06T09:00:00:Z","depth":"0","parameterNumber":2,"parameterNumberName":"U-component_of_CURRENTS"},"data":[0,0,0,0,0,0,0,0,0,0,0,0,0,0,0,0,0,0,0,0,0,0,0,0,0,0,0,0,0,0,0,0,0,0,0,0,0,0,0,0,0,0,0,0,0,0,0,0,0,0,0,0,0,0,0,0,0,0,0.2134,0.2136,0,0.2333,0.2336,0.2338,0.2408,0.2407,0.2406,0.2405,0.2572,0.2577,0.2582,0,0,0,0,0,0,0,0,0,0,0,0,0,0.1921,0.1924,0.2134,0.2136,0.2139,0.2333,0.2336,0.2339,0.2408,0.2407,0.2406,0.2405,0.257,0.2576,0.2582,0,0,0,0,0,0,0,0,0,0,0,0,0,0.2057,0.1925,0.2133,0.2196,0.2203,0.2332,0.2336,0.2339,0.2408,0.2407,0.2405,0.2404,0.2568,0.2575,0.2583,0.2657,0,0,0.2607,0.2611,0,0,0,0,0,0,0,0,0.2049,0.2064,0.2184,0.2192,0.22,0.2343,0.2322,0.2444,0.2408,0.2331,0.2405,0.2404,0.2493,0.2507,0.2549,0.2665,0.2672,0.2608,0.2613,0.2616,0.2618,0,0,0,0,0,0,0,0.2039,0.2057,0.2214,0.2187,0.2197,0.2251,0.2268,0.2346,0.2417,0.2338,0.2343,0.2364,0.2497,0.2541,0.2553,0.2675,0.2608,0.2615,0.2619,0.2622,0.2873,0.2874,0,0,0,0,0,0,0.2009,0.2048,0.2207,0.222,0.2119,0.2255,0.2274,0.23,0.2417,0.2434,0.2365,0.2367,0.2528,0.2544,0.2559,0.2675,0.2616,0.2623,0.2628,0.2871,0.2873,0.2875,0,0,0,0,0,0,0.2004,0.2021,0.2199,0.2137,0.2163,0.2259,0.2288,0.2304,0.2354,0.2438,0.2454,0.2398,0.2528,0.2548,0.2632,0.268,0.2627,0.2634,0.2868,0.2871,0.2874,0.2892,0,0,0,0,0,0,0.1997,0.2018,0.2039,0.2135,0.2166,0.2294,0.229,0.2309,0.2368,0.2372,0.2471,0.2485,0.2528,0.262,0.264,0.269,0.264,0.2866,0.287,0.2873,0.2889,0.2895,0.2901,0,0,0,0,0,0.1989,0.2047,0.2038,0.2059,0.2186,0.2297,0.2319,0.2382,0.237,0.2416,0.2462,0.2482,0.2657,0.2628,0.2651,0.2705,0.2864,0.2869,0.2873,0.2887,0.2894,0.29,0,0,0,0,0,0,0.2005,0.2062,0.2055,0.2135,0.2204,0.2308,0.2365,0.2387,0.2463,0.2459,0.2512,0.2532,0.2633,0.2661,0.2627,0.2786,0.2763,0.2772,0.2766,0.2774,0.2779,0.2756,0.2647,0,0,0,0,0,0.2002,0.2042,0.2107,0.2177,0.2202,0.2272,0.2324,0.2361,0.2434,0.2467,0.2525,0.2589,0.2672,0.271,0.2792,0.2874,0.2915,0.2922,0.2927,0.2932,0.2928,0.3044,0.306,0.2889,0.2889,0.2889,0,0,0.2045,0.2068,0.2104,0.2179,0.2232,0.2295,0.2303,0.239,0.2439,0.2474,0.256,0.2624,0.2701,0.2802,0.2847,0.2826,0.3001,0.2937,0.2941,0.2935,0.305,0.3067,0.3081,0.2892,0.2892,0.2891,0,0,0.2134,0.2147,0.2198,0.2242,0.2303,0.2338,0.2354,0.2443,0.2475,0.256,0.26,0.2679,0.2795,0.2863,0.2909,0.2993,0.3038,0.3022,0.3027,0.3139,0.3154,0.3168,0.3233,0.3252,0.3013,0.3013,0.3013,0,0.218,0.2231,0.2243,0.229,0.2327,0.2347,0.241,0.2458,0.2562,0.2591,0.2586,0.2765,0.2826,0.2949,0.2972,0.3008,0.3062,0.2992,0.3147,0.3161,0.3174,0.3239,0.326,0.3014,0.3014,0.3014,0.3014,0,0.229,0.2327,0.2368,0.2402,0.2445,0.2515,0.2546,0.2587,0.26,0.2647,0.2758,0.2841,0.2938,0.2979,0.3,0.3132,0.3135,0.315,0.3124,0.3193,0.3256,0.3277,0.3016,0.3016,0.3015,0.3015,0,0,0.2423,0.2436,0.2453,0.2453,0.2499,0.2547,0.2598,0.2661,0.2693,0.2771,0.2841,0.2968,0.299,0.3043,0.3093,0.3175,0.3311,0.3192,0.3198,0.3247,0.3539,0.3532,0.3554,0.3361,0.3365,0.3369,0.3542,0,0.2508,0.2566,0.2563,0.2633,0.2662,0.2661,0.2705,0.2752,0.2785,0.2856,0.2924,0.3022,0.3022,0.3073,0.3158,0.3286,0.337,0.3261,0.3473,0.3479,0.3458,0.3581,0.3514,0.3663,0.3563,0.3566,0.3569,0,0.2621,0.2627,0.2684,0.2688,0.2703,0.2742,0.2774,0.2821,0.2896,0.2925,0.3004,0.306,0.3188,0.3177,0.3403,0.3336,0.3434,0.3516,0.3526,0.3525,0.3513,0.3583,0.3706,0.3519,0.3602,0.3599,0.3597,0,0.2673,0.2719,0.2738,0.2752,0.2768,0.2785,0.2799,0.285,0.2874,0.2974,0.3006,0.3153,0.3226,0.3384,0.3513,0.3485,0.3753,0.3743,0.3826,0.3824,0.3811,0.3802,0.3771,0.3917,0.3916,0.3916,0.3915,0,0.2753,0.2783,0.2755,0.2774,0.279,0.2805,0.284,0.2868,0.2924,0.2966,0.3041,0.3112,0.3285,0.3431,0.3558,0.3755,0.3798,0.3855,0.3891,0.3813,0.3803,0.3673,0.3586,0.3922,0.3921,0.392,0.3918,0,0.2805,0.2803,0.2814,0.2811,0.281,0.2818,0.2825,0.2848,0.2902,0.2961,0.2993,0.3114,0.3312,0.3471,0.3734,0.3806,0.3908,0.4056,0.3923,0.3941,0.3831,0.375,0.3719,0.3652,0.4194,0.4195,0.4196,0,0.281,0.2824,0.281,0.279,0.2783,0.2789,0.279,0.2834,0.2854,0.2964,0.2995,0.3177,0.3307,0.3652,0.3849,0.4091,0.3947,0.4135,0.4077,0.3836,0.3774,0.3613,0.3547,0.4065,0.4065,0.4065,0.4065,0,0.279,0.2794,0.2783,0.2756,0.2744,0.273,0.274,0.2753,0.2818,0.2878,0.2986,0.3108,0.3426,0.3639,0.3923,0.4073,0.3928,0.414,0.3953,0.3729,0.3494,0.3442,0.3891,0.4063,0.4064,0.4064,0.4064,0.4064,0.273,0.2721,0.2701,0.2673,0.2664,0.2645,0.2622,0.2658,0.2694,0.2758,0.2928,0.3082,0.3399,0.3804,0.3903,0.3967,0.3945,0.3912,0.3854,0.3726,0.3591,0.4009,0.4177,0.4178,0.4179,0.4179,0.418,0,0.2617,0.2624,0.2602,0.2563,0.2532,0.2558,0.2554,0.2526,0.2547,0.2693,0.2797,0.3085,0.3322,0.3553,0.3753,0.3669,0.3576,0.3568,0.3303,0.3275,0.3719,0.3636,0.3617,0.3617,0.3618,0.3618,0.3618,0.3618,0.2532,0.2499,0.2509,0.2422,0.2404,0.2339,0.2322,0.2317,0.2391,0.2488,0.2625,0.2784,0.3094,0.3303,0.3298,0.3271,0.3021,0.2961,0.2899,0.315,0.3174,0.3197,0.3095,0.2963,0.2962,0.2383,0.2379,0.2375]},{"header":{"parameterUnit":"m.s-1","parameterCategory":2,"la1":30.2991,"la2":30.254,"lo1":-89.0895,"lo2":-89.0444,"dy":0.0017,"dx":0.0017,"nx":28,"ny":28,"refTime":"2026-02-06T09:00:00:Z","depth":"0","parameterNumber":3,"parameterNumberName":"V-component_of_CURRENTS"},"data":[0,0,0,0,0,0,0,0,0,0,0,0,0,0,0,0,0,0,0,0,0,0,0,0,0,0,0,0,0,0,0,0,0,0,0,0,0,0,0,0,0,0,0,0,0,0,0,0,0,0,0,0,0,0,0,0,0,0,0.0062,0.0062,0,0.0055,0.0055,0.0054,0.0007,0.0006,0.0005,0.0004,-0.0142,-0.0145,-0.0148,0,0,0,0,0,0,0,0,0,0,0,0,0,0.0047,0.0047,0.0062,0.0062,0.0063,0.0055,0.0055,0.0054,0.0007,0.0006,0.0005,0.0003,-0.0141,-0.0145,-0.0148,0,0,0,0,0,0,0,0,0,0,0,0,0,0.0045,0.0047,0.0062,0.004,0.0038,0.0055,0.0055,0.0054,0.0007,0.0006,0.0004,0.0003,-0.014,-0.0144,-0.0149,-0.015,0,0,-0.0163,-0.0165,0,0,0,0,0,0,0,0,0.0045,0.0045,0.0043,0.0042,0.004,0.0033,-0.0004,-0.002,0.0007,0.0016,0.0004,0.0002,-0.0094,-0.0102,-0.0102,-0.0157,-0.0163,-0.0163,-0.0166,-0.0168,-0.0169,0,0,0,0,0,0,0,0.0045,0.0045,0.0057,0.0044,0.0041,0.0035,0.0032,-0.0007,-0.0036,0.0015,0.0012,0.0016,-0.0096,-0.0098,-0.0107,-0.0165,-0.0163,-0.0167,-0.017,-0.0172,-0.0221,-0.0219,0,0,0,0,0,0,0.0053,0.0046,0.0057,0.0057,0.0042,0.0036,0.0034,0.0034,-0.0033,-0.0042,0.0017,0.0014,-0.0089,-0.0101,-0.0112,-0.0106,-0.0168,-0.0172,-0.0175,-0.0222,-0.022,-0.0219,0,0,0,0,0,0,0.0053,0.0054,0.0057,0.0053,0.0053,0.0038,0.0039,0.0035,0.0031,-0.0029,-0.0042,0.0018,-0.0091,-0.0106,-0.0134,-0.0113,-0.0174,-0.0178,-0.0224,-0.0221,-0.0219,-0.0102,0,0,0,0,0,0,0.0052,0.0054,0.0052,0.0054,0.0054,0.0065,0.004,0.0036,0.0037,0.0032,-0.0033,-0.0047,-0.0093,-0.0126,-0.0138,-0.012,-0.0182,-0.0225,-0.0223,-0.022,-0.0107,-0.0096,-0.0086,0,0,0,0,0,0.0051,0.0059,0.0051,0.0053,0.0053,0.0065,0.0065,0.0047,0.0038,0.0038,0.0007,-0.0046,-0.0118,-0.0128,-0.0143,-0.0126,-0.0227,-0.0223,-0.022,-0.0112,-0.0098,-0.0086,0,0,0,0,0,0,0.0042,0.0055,0.0047,0.0054,0.0058,0.0058,0.006,0.0055,0.0035,0.0025,-0.0029,-0.0045,-0.0059,-0.0106,-0.0116,-0.013,-0.018,-0.018,-0.0093,-0.0081,-0.007,-0.0073,-0.0186,0,0,0,0,0,0.0043,0.0054,0.0061,0.0065,0.007,0.0068,0.007,0.0061,0.0049,0.0039,0.0004,-0.0034,-0.0053,-0.0079,-0.011,-0.0123,-0.016,-0.0121,-0.011,-0.01,-0.0111,-0.012,-0.0111,-0.0208,-0.0208,-0.0208,0,0,0.0038,0.0049,0.0052,0.0064,0.0065,0.0083,0.0064,0.0072,0.0084,0.0024,0.0025,0.0001,-0.0046,-0.0051,-0.0063,-0.0093,-0.0089,-0.0096,-0.0088,-0.0105,-0.0116,-0.0107,-0.0098,-0.0206,-0.0206,-0.0207,0,0,0.0046,0.0048,0.0061,0.0074,0.0086,0.0092,0.0098,0.0104,0.01,0.0103,0.0076,0.0071,0.0023,0.001,-0.0006,0.0043,-0.0025,0.003,0.0071,0.0064,0.0072,0.0078,0.0058,0.0062,0.0028,0.0028,0.0028,0,0.0035,0.0056,0.0065,0.0087,0.0102,0.0101,0.0122,0.0128,0.0124,0.0133,0.0108,0.0094,0.0056,0.0069,0.0086,0.0067,0.0042,0.0029,0.0079,0.0084,0.0088,0.0066,0.0068,0.0034,0.0034,0.0033,0.0032,0,0.0055,0.0074,0.0087,0.0117,0.0136,0.0152,0.0171,0.0186,0.0187,0.0194,0.0208,0.0176,0.0162,0.0164,0.0133,0.0156,0.0123,0.0102,0.0048,0.0105,0.0078,0.0078,0.0043,0.0041,0.0039,0.0037,0,0,0.0021,0.0086,0.0089,0.0112,0.0153,0.017,0.0208,0.0241,0.0274,0.0267,0.0301,0.0286,0.0272,0.0252,0.0228,0.0221,0.0241,0.0173,0.017,0.0156,0.0214,0.0177,0.0173,0.0229,0.0229,0.023,0.0188,0,0.0027,0.0076,0.0111,0.0158,0.0184,0.0217,0.0257,0.029,0.0313,0.0348,0.0336,0.035,0.0305,0.0306,0.0295,0.0257,0.0244,0.0253,0.0156,0.0153,0.0115,0.0173,0.0187,0.0149,0.0188,0.0188,0.0188,0,0.0028,0.0067,0.0111,0.0187,0.0202,0.0233,0.0304,0.034,0.0398,0.0417,0.0435,0.0426,0.0424,0.0376,0.0327,0.0333,0.0274,0.024,0.0237,0.0154,0.0116,0.0094,0.0147,0.0032,0.0187,0.0187,0.0187,0,-0.0007,0.0066,0.0102,0.0125,0.0208,0.0238,0.0283,0.0354,0.04,0.046,0.0495,0.0491,0.0484,0.0427,0.0348,0.0336,0.0289,0.0263,0.0175,0.0171,0.0136,0.0128,0.0065,0.0221,0.0221,0.0221,0.0222,0,-0.0018,0.001,0.0088,0.0106,0.0164,0.0224,0.0294,0.0348,0.0429,0.0497,0.0516,0.0554,0.0493,0.0461,0.0379,0.0279,0.0307,0.0185,0.0162,0.0178,0.0175,0.0033,-0.004,0.022,0.022,0.022,0.0221,0,-0.0068,-0.002,0.0029,0.0116,0.0147,0.0184,0.0299,0.0365,0.0434,0.0523,0.0542,0.0592,0.056,0.0491,0.0406,0.0313,0.0153,0.0181,0.0198,0.0178,-0.0021,-0.0088,-0.024,-0.0292,0.0079,0.0078,0.0077,0,-0.009,-0.007,0.0022,0.0073,0.0113,0.0187,0.0258,0.035,0.0429,0.0546,0.0591,0.06,0.0636,0.0507,0.036,0.0225,0.011,0.0117,0.0093,-0.0029,-0.0119,-0.0192,-0.0229,0.01,0.0099,0.0099,0.0098,0,-0.0119,-0.0089,-0.0038,0.0068,0.0142,0.0233,0.0334,0.0389,0.051,0.0596,0.0697,0.0738,0.0632,0.0547,0.0361,0.0235,0.0023,0.0098,-0.0021,-0.0106,-0.0196,-0.0257,0.011,0.0093,0.0094,0.0094,0.0094,0.0095,-0.0133,-0.0093,-0.0003,0.0091,0.018,0.0295,0.0375,0.0493,0.0618,0.0786,0.0787,0.0915,0.0762,0.053,0.031,-0.0036,-0.0048,-0.0122,-0.0191,-0.0253,-0.031,0.0033,-0.0016,-0.0016,-0.0016,-0.0016,-0.0016,0,-0.0114,-0.0046,0.0039,0.0167,0.0263,0.0311,0.0456,0.056,0.0715,0.0883,0.0997,0.1059,0.0819,0.053,0.0078,-0.0225,-0.0355,-0.0391,-0.0475,-0.0496,-0.0174,-0.0178,-0.0273,-0.0273,-0.0272,-0.0272,-0.0272,-0.0272,-0.008,0.0005,0.0058,0.0223,0.0312,0.0464,0.0548,0.0699,0.0855,0.1098,0.125,0.1362,0.1225,0.0313,-0.0307,-0.0471,-0.0687,-0.0764,-0.0859,-0.0621,-0.06,-0.0581,-0.0601,-0.0782,-0.0783,-0.1137,-0.1141,-0.1143]}],[{"header":{"parameterUnit":"m.s-1","parameterCategory":2,"la1":30.2991,"la2":30.254,"lo1":-89.0895,"lo2":-89.0444,"dy":0.0017,"dx":0.0017,"nx":28,"ny":28,"refTime":"2026-02-06T09:00:00:Z","depth":"2","parameterNumber":2,"parameterNumberName":"U-component_of_CURRENTS"},"data":[0,0,0,0,0,0,0,0,0,0,0,0,0,0,0,0,0,0,0,0,0,0,0,0,0,0,0,0,0,0,0,0,0,0,0,0,0,0,0,0,0,0,0,0,0,0,0,0,0,0,0,0,0,0,0,0,0,0,-0.0433,-0.0432,0,-0.0434,-0.0434,-0.0435,-0.0363,-0.036,-0.0358,-0.0355,-0.0194,-0.0192,-0.019,0,0,0,0,0,0,0,0,0,0,0,0,0,-0.051,-0.0509,-0.0433,-0.0432,-0.0432,-0.0434,-0.0434,-0.0435,-0.0363,-0.036,-0.0357,-0.0354,-0.0195,-0.0192,-0.019,0,0,0,0,0,0,0,0,0,0,0,0,0,-0.0496,-0.0508,-0.0433,-0.0392,-0.0387,-0.0433,-0.0434,-0.0435,-0.0364,-0.036,-0.0356,-0.0353,-0.0195,-0.0192,-0.019,-0.0246,0,0,-0.018,-0.0179,0,0,0,0,0,0,0,0,-0.0497,-0.0494,-0.0398,-0.0395,-0.039,-0.0389,-0.0402,-0.0361,-0.0365,-0.038,-0.0355,-0.0351,-0.0243,-0.0236,-0.0255,-0.0238,-0.0231,-0.018,-0.0178,-0.0177,-0.0176,0,0,0,0,0,0,0,-0.0498,-0.0494,-0.044,-0.0398,-0.0393,-0.0421,-0.0414,-0.0396,-0.0334,-0.0378,-0.0371,-0.0362,-0.024,-0.0259,-0.025,-0.0229,-0.018,-0.0178,-0.0176,-0.0175,-0.0176,-0.0178,0,0,0,0,0,0,-0.0481,-0.0495,-0.0439,-0.0439,-0.0428,-0.0421,-0.0414,-0.0398,-0.0337,-0.0324,-0.0366,-0.0359,-0.0266,-0.0254,-0.0244,-0.0174,-0.0177,-0.0174,-0.0173,-0.0174,-0.0177,-0.0178,0,0,0,0,0,0,-0.0483,-0.0477,-0.0439,-0.0462,-0.0458,-0.0422,-0.0406,-0.04,-0.0367,-0.0329,-0.0312,-0.0331,-0.0262,-0.0248,-0.0221,-0.0171,-0.0173,-0.017,-0.0172,-0.0175,-0.0178,-0.0118,0,0,0,0,0,0,-0.0485,-0.0477,-0.0473,-0.0461,-0.0456,-0.0441,-0.0409,-0.0402,-0.0368,-0.0358,-0.0295,-0.028,-0.0258,-0.0226,-0.0218,-0.0167,-0.0168,-0.017,-0.0173,-0.0177,-0.0118,-0.0118,-0.0119,0,0,0,0,0,-0.0488,-0.0504,-0.0473,-0.0466,-0.0447,-0.044,-0.0442,-0.0409,-0.0369,-0.0364,-0.0336,-0.0279,-0.0241,-0.0226,-0.0215,-0.0162,-0.0168,-0.0172,-0.0176,-0.0117,-0.0118,-0.0119,0,0,0,0,0,0,-0.0537,-0.0498,-0.0462,-0.0463,-0.0434,-0.0424,-0.0424,-0.0392,-0.0373,-0.0339,-0.0305,-0.0291,-0.0257,-0.0243,-0.0226,-0.0186,-0.0194,-0.0197,-0.0153,-0.0153,-0.0154,-0.01,-0.0165,0,0,0,0,0,-0.0545,-0.0541,-0.0496,-0.0495,-0.0473,-0.0438,-0.0432,-0.039,-0.0368,-0.0352,-0.0308,-0.028,-0.0282,-0.0239,-0.0244,-0.0208,-0.0207,-0.0176,-0.0176,-0.0176,-0.0135,-0.0177,-0.0175,-0.0192,-0.0192,-0.0192,0,0,-0.0558,-0.0541,-0.0533,-0.0505,-0.0478,-0.0446,-0.0425,-0.0386,-0.0349,-0.0338,-0.0278,-0.0284,-0.0287,-0.0263,-0.0241,-0.0222,-0.017,-0.0182,-0.018,-0.0138,-0.018,-0.0178,-0.0176,-0.0195,-0.0194,-0.0194,0,0,-0.0568,-0.0561,-0.0535,-0.0516,-0.0458,-0.0444,-0.0417,-0.0365,-0.0327,-0.0286,-0.0287,-0.0274,-0.0233,-0.024,-0.0238,-0.0252,-0.0197,-0.0234,-0.0146,-0.0188,-0.0185,-0.0183,-0.0156,-0.0151,-0.0202,-0.0202,-0.0202,0,-0.0568,-0.0529,-0.0532,-0.0497,-0.0468,-0.043,-0.0374,-0.0361,-0.0304,-0.027,-0.0246,-0.023,-0.0229,-0.0219,-0.0212,-0.0242,-0.0228,-0.013,-0.0183,-0.0181,-0.0179,-0.0152,-0.0148,-0.02,-0.02,-0.02,-0.0201,0,-0.0539,-0.0503,-0.0492,-0.0428,-0.0421,-0.037,-0.0332,-0.0296,-0.0239,-0.0207,-0.0163,-0.0185,-0.0153,-0.0169,-0.0172,-0.0156,-0.0136,-0.02,-0.0163,-0.0172,-0.0145,-0.0141,-0.0196,-0.0197,-0.0198,-0.0199,0,0,-0.0488,-0.0466,-0.044,-0.0396,-0.0361,-0.0334,-0.03,-0.024,-0.0186,-0.014,-0.0075,-0.0089,-0.0058,-0.0059,-0.0075,-0.0088,-0.0068,-0.0095,-0.0098,-0.0032,-0.0085,0.0054,0.0072,-0.0124,-0.0124,-0.0124,-0.006,0,-0.0417,-0.0342,-0.036,-0.0278,-0.0223,-0.0222,-0.0198,-0.0157,-0.0117,-0.0062,-0.0059,-0.0007,-0.003,0.0021,-0.0007,-0.0063,-0.0058,-0.0074,-0.0114,-0.0113,0.0038,0.0079,0.0029,0.0094,-0.0056,-0.0056,-0.0055,0,-0.0324,-0.0291,-0.0195,-0.0165,-0.0138,-0.0095,-0.0033,-0.0008,0.0026,0.0069,0.0113,0.0118,0.0145,0.0102,0.006,0.0066,0.0025,-0.0029,-0.003,0.0093,0.0033,0.0069,0.0106,-0.005,-0.005,-0.005,-0.0051,0,-0.0226,-0.0161,-0.0079,-0.0063,-0.0036,0.002,0.0047,0.0073,0.0122,0.0186,0.0259,0.0241,0.0313,0.0212,0.018,0.0124,0.0128,0.0002,0.0086,0.0096,0.0046,0.0054,-0.0037,-0.0037,-0.0038,-0.0038,-0.0038,0,-0.0133,-0.006,-0.0005,0.0045,0.014,0.0133,0.0236,0.025,0.0307,0.0389,0.0375,0.0456,0.0352,0.0352,0.0233,0.0243,0.0177,0.0151,0.0129,0.0068,0.0076,-0.0071,-0.0075,-0.0035,-0.0036,-0.0036,-0.0037,0,-0.0052,-0.0006,0.0081,0.0154,0.0195,0.0269,0.0361,0.0418,0.0487,0.0596,0.0649,0.0672,0.07,0.0601,0.0479,0.0391,0.0305,0.0313,0.0313,0.0294,0.0277,0.0274,0.0382,0.0388,0.0393,0.0397,0.04,0,-0.0006,0.0056,0.0163,0.0229,0.0281,0.0393,0.046,0.0521,0.0588,0.073,0.0792,0.0894,0.085,0.0786,0.0696,0.0565,0.051,0.0512,0.0372,0.0357,0.0323,0.0312,0.0303,0.0315,0.0317,0.0319,0.0321,0,0.0049,0.0099,0.0146,0.0305,0.0416,0.049,0.0613,0.0679,0.0767,0.0841,0.0934,0.0893,0.0919,0.0796,0.075,0.0635,0.0519,0.0555,0.0509,0.0251,0.0308,0.027,0.0259,0.0338,0.0336,0.0335,0.0334,0.0333,0.0088,0.013,0.0234,0.0377,0.0477,0.0583,0.0642,0.0719,0.0791,0.0858,0.0896,0.0847,0.0824,0.0707,0.0681,0.0737,0.0668,0.0582,0.0568,0.0553,0.0569,0.0634,0.0732,0.0733,0.0733,0.0733,0.0734,0,0.0135,0.0209,0.0315,0.0466,0.0559,0.0646,0.0732,0.0709,0.0743,0.0827,0.0805,0.0709,0.061,0.0679,0.0744,0.0704,0.0582,0.073,0.0553,0.0537,0.0522,0.0528,0.0684,0.0685,0.0685,0.0685,0,0,0.0175,0.0277,0.0338,0.0531,0.0648,0.076,0.0802,0.0693,0.0701,0.0629,0.0681,0.0592,0.0647,0.0689,0.0665,0.0728,0.063,0.071,0.0739,0.0516,0.0503,0.0419,0.0412,0,0,0,0,0]},{"header":{"parameterUnit":"m.s-1","parameterCategory":2,"la1":30.2991,"la2":30.254,"lo1":-89.0895,"lo2":-89.0444,"dy":0.0017,"dx":0.0017,"nx":28,"ny":28,"refTime":"2026-02-06T09:00:00:Z","depth":"2","parameterNumber":3,"parameterNumberName":"V-component_of_CURRENTS"},"data":[0,0,0,0,0,0,0,0,0,0,0,0,0,0,0,0,0,0,0,0,0,0,0,0,0,0,0,0,0,0,0,0,0,0,0,0,0,0,0,0,0,0,0,0,0,0,0,0,0,0,0,0,0,0,0,0,0,0,0.0067,0.0066,0,-0.0027,-0.0028,-0.0028,-0.0113,-0.0114,-0.0115,-0.0117,-0.0329,-0.0333,-0.0337,0,0,0,0,0,0,0,0,0,0,0,0,0,0.0263,0.0259,0.0068,0.0066,0.0064,-0.0027,-0.0028,-0.0029,-0.0112,-0.0114,-0.0116,-0.0117,-0.0327,-0.0333,-0.0338,0,0,0,0,0,0,0,0,0,0,0,0,0,0.0178,0.0258,0.0068,0.0008,0.0002,-0.0027,-0.0028,-0.0029,-0.0112,-0.0114,-0.0116,-0.0118,-0.0326,-0.0332,-0.0338,-0.0337,0,0,-0.0358,-0.0361,0,0,0,0,0,0,0,0,0.0183,0.0172,0.0019,0.0012,0.0005,-0.0064,-0.0037,-0.0139,-0.0111,-0.0064,-0.0117,-0.0119,-0.0253,-0.0265,-0.027,-0.0346,-0.0356,-0.0359,-0.0363,-0.0366,-0.0368,0,0,0,0,0,0,0,0.0189,0.0176,0.0035,0.0017,0.0009,0.0016,0.0001,-0.0055,-0.0144,-0.0068,-0.0076,-0.0093,-0.0257,-0.0263,-0.0276,-0.0359,-0.0359,-0.0365,-0.0369,-0.0371,-0.0487,-0.0487,0,0,0,0,0,0,0.0189,0.0181,0.0038,0.0031,0.0085,0.0013,-0.0003,-0.0036,-0.0141,-0.0159,-0.0091,-0.0096,-0.0251,-0.0268,-0.0284,-0.0325,-0.0366,-0.0372,-0.0375,-0.0488,-0.0487,-0.0486,0,0,0,0,0,0,0.0193,0.0176,0.0041,0.0102,0.0084,0.0011,-0.0025,-0.0037,-0.0058,-0.0158,-0.0178,-0.0102,-0.0254,-0.0275,-0.0338,-0.0333,-0.0375,-0.0381,-0.0489,-0.0488,-0.0487,-0.0385,0,0,0,0,0,0,0.0199,0.0178,0.0179,0.0101,0.008,0.0023,-0.0024,-0.0037,-0.0067,-0.0075,-0.0174,-0.0195,-0.0257,-0.0327,-0.0344,-0.0343,-0.0386,-0.049,-0.0489,-0.0487,-0.0389,-0.038,-0.0372,0,0,0,0,0,0.0206,0.0214,0.0179,0.0162,0.0074,0.0023,0.0014,-0.0041,-0.0065,-0.0067,-0.0133,-0.0192,-0.033,-0.0332,-0.0352,-0.0353,-0.0491,-0.0489,-0.0487,-0.0393,-0.0382,-0.0373,0,0,0,0,0,0,0.03,0.0203,0.0163,0.014,0.0082,0.0006,0.0016,-0.0034,-0.0082,-0.0092,-0.0185,-0.0209,-0.0261,-0.0315,-0.0315,-0.0379,-0.0419,-0.0421,-0.034,-0.0331,-0.0322,-0.03,-0.0391,0,0,0,0,0,0.0319,0.0304,0.0202,0.0191,0.0166,0.0092,0.0072,0.002,-0.0043,-0.0066,-0.0133,-0.0203,-0.0263,-0.0304,-0.036,-0.0397,-0.0432,-0.0409,-0.0401,-0.0393,-0.0387,-0.0448,-0.0445,-0.048,-0.048,-0.048,0,0,0.0348,0.0303,0.0288,0.0212,0.0174,0.0147,0.0077,0.0043,0.0017,-0.0082,-0.0112,-0.0177,-0.0264,-0.0304,-0.0332,-0.0355,-0.039,-0.0391,-0.0384,-0.0382,-0.0446,-0.0443,-0.044,-0.0479,-0.0479,-0.0479,0,0,0.0411,0.0362,0.0366,0.0328,0.0262,0.0206,0.0193,0.0109,0.007,0.0022,-0.005,-0.011,-0.0196,-0.0257,-0.0301,-0.028,-0.0341,-0.0297,-0.0246,-0.0305,-0.0303,-0.0301,-0.029,-0.0289,-0.0297,-0.0297,-0.0297,0,0.0452,0.043,0.0364,0.0364,0.0344,0.0234,0.0228,0.0177,0.0084,0.0059,0.0023,-0.0096,-0.0173,-0.0233,-0.0226,-0.0263,-0.0282,-0.0277,-0.0294,-0.0294,-0.0294,-0.0284,-0.0283,-0.0292,-0.0292,-0.0293,-0.0293,0,0.0495,0.0492,0.0502,0.0456,0.0432,0.041,0.0317,0.0285,0.0223,0.0159,0.0091,-0.0008,-0.0079,-0.0114,-0.0169,-0.0207,-0.021,-0.0272,-0.0317,-0.0284,-0.0275,-0.0276,-0.0284,-0.0286,-0.0288,-0.0289,0,0,0.0529,0.0528,0.0527,0.0539,0.0473,0.0452,0.0425,0.0354,0.0335,0.024,0.0213,0.0103,0.0045,-0.0007,-0.0087,-0.0148,-0.0156,-0.0201,-0.0207,-0.0183,-0.023,-0.0183,-0.018,-0.0225,-0.0226,-0.0227,-0.0204,0,0.0572,0.0602,0.0585,0.0613,0.0615,0.0548,0.0533,0.0465,0.0396,0.0346,0.0222,0.0167,0.0084,0.0054,-0.0019,-0.0139,-0.0164,-0.0153,-0.0272,-0.0274,-0.0233,-0.0183,-0.0231,-0.0212,-0.0206,-0.0206,-0.0206,0,0.06,0.062,0.066,0.0688,0.0682,0.0693,0.0657,0.063,0.0533,0.0484,0.0404,0.0302,0.0202,0.0126,-0.0033,-0.0021,-0.0098,-0.0185,-0.0188,-0.0186,-0.0231,-0.0255,-0.0216,-0.021,-0.021,-0.0209,-0.0209,0,0.0639,0.0673,0.0713,0.0719,0.0722,0.0749,0.0745,0.068,0.0661,0.0583,0.0559,0.0416,0.0347,0.0206,0.0027,0.0001,-0.0139,-0.0203,-0.0215,-0.021,-0.0295,-0.0297,-0.0281,-0.0281,-0.0281,-0.0281,-0.0281,0,0.0683,0.0722,0.0747,0.0774,0.0833,0.0819,0.0858,0.0836,0.0789,0.0777,0.0647,0.0604,0.0357,0.0231,0.0078,-0.0058,-0.0091,-0.018,-0.0208,-0.0253,-0.025,-0.0305,-0.0309,-0.028,-0.028,-0.0281,-0.0281,0,0.0739,0.0744,0.0811,0.0845,0.0866,0.0919,0.096,0.0969,0.093,0.0917,0.0899,0.0741,0.0582,0.0361,0.0132,0.003,-0.0122,-0.0153,-0.0146,-0.0173,-0.0153,-0.0151,-0.0148,-0.0146,-0.0145,-0.0144,-0.0143,0,0.0772,0.0812,0.0877,0.0925,0.0965,0.1027,0.106,0.1049,0.1057,0.1,0.0994,0.085,0.0718,0.0437,0.0197,-0.0017,-0.0065,-0.0124,-0.0192,-0.0114,-0.0143,-0.0143,-0.0143,-0.0247,-0.0247,-0.0247,-0.0247,0,0.085,0.0875,0.0915,0.1001,0.1074,0.1144,0.1198,0.1222,0.1193,0.1182,0.1151,0.1049,0.0757,0.046,0.0177,0.0044,-0.0101,-0.0122,-0.0087,-0.0259,-0.0203,-0.0232,-0.023,-0.0246,-0.0246,-0.0246,-0.0246,-0.0246,0.0902,0.0939,0.0978,0.1067,0.1145,0.123,0.1284,0.1324,0.1351,0.1257,0.1168,0.0975,0.0666,0.023,0.0048,-0.0075,-0.0067,-0.0156,-0.0159,-0.0162,-0.0164,-0.0108,-0.0128,-0.0128,-0.0127,-0.0127,-0.0126,0,0.093,0.0951,0.1037,0.1117,0.1195,0.1229,0.1332,0.1347,0.1385,0.1268,0.1132,0.073,0.0395,0.0164,-0.004,-0.0172,-0.0213,-0.0193,-0.0266,-0.0266,-0.0266,-0.0276,-0.0269,-0.0269,-0.027,-0.027,0,0,0.0947,0.0987,0.1017,0.112,0.1173,0.1254,0.1309,0.137,0.1342,0.1169,0.1001,0.06,0.0389,0.0153,-0.0063,-0.0129,-0.0138,-0.0129,-0.0007,-0.0066,-0.0063,-0.0243,-0.0257,0,0,0,0,0]}],[{"header":{"parameterUnit":"m.s-1","parameterCategory":2,"la1":30.2991,"la2":30.254,"lo1":-89.0895,"lo2":-89.0444,"dy":0.0017,"dx":0.0017,"nx":28,"ny":28,"refTime":"2026-02-06T09:00:00:Z","depth":"4","parameterNumber":2,"parameterNumberName":"U-component_of_CURRENTS"},"data":[0,0,0,0,0,0,0,0,0,0,0,0,0,0,0,0,0,0,0,0,0,0,0,0,0,0,0,0,0,0,0,0,0,0,0,0,0,0,0,0,0,0,0,0,0,0,0,0,0,0,0,0,0,0,0,0,0,0,-0.029,-0.029,0,-0.028,-0.028,-0.028,-0.0295,-0.0295,-0.0296,-0.0296,-0.0316,-0.0316,-0.0316,0,0,0,0,0,0,0,0,0,0,0,0,0,-0.0289,-0.029,-0.029,-0.029,-0.029,-0.028,-0.028,-0.028,-0.0295,-0.0295,-0.0296,-0.0297,-0.0316,-0.0316,-0.0316,0,0,0,0,0,0,0,0,0,0,0,0,0,-0.0286,-0.029,-0.029,-0.0296,-0.0297,-0.028,-0.028,-0.028,-0.0295,-0.0295,-0.0296,-0.0297,-0.0316,-0.0316,-0.0316,-0.0301,0,0,-0.0317,-0.0317,0,0,0,0,0,0,0,0,-0.0286,-0.0286,-0.0295,-0.0296,-0.0296,-0.029,-0.0287,-0.0289,-0.0294,-0.0295,-0.0296,-0.0297,-0.031,-0.031,-0.0306,-0.0302,-0.0303,-0.0317,-0.0317,-0.0317,-0.0317,0,0,0,0,0,0,0,-0.0286,-0.0286,-0.0286,-0.0295,-0.0296,-0.0288,-0.0289,-0.0287,-0.0299,-0.0295,-0.0296,-0.0295,-0.031,-0.0306,-0.0307,-0.0304,-0.0317,-0.0317,-0.0317,-0.0317,-0.0368,-0.0369,0,0,0,0,0,0,-0.0288,-0.0286,-0.0287,-0.0286,-0.0293,-0.0288,-0.0288,-0.0291,-0.0298,-0.03,-0.0294,-0.0296,-0.0306,-0.0307,-0.0308,-0.0394,-0.0317,-0.0317,-0.0317,-0.0366,-0.0368,-0.0369,0,0,0,0,0,0,-0.0288,-0.0288,-0.0287,-0.0286,-0.0285,-0.0287,-0.029,-0.029,-0.0305,-0.0297,-0.03,-0.0311,-0.0306,-0.0308,-0.0328,-0.0391,-0.0317,-0.0317,-0.0365,-0.0367,-0.0369,-0.0501,0,0,0,0,0,0,-0.0288,-0.0289,-0.0295,-0.0286,-0.0285,-0.0287,-0.0289,-0.029,-0.0302,-0.0304,-0.0312,-0.0313,-0.0307,-0.0328,-0.0328,-0.039,-0.0317,-0.0363,-0.0366,-0.0368,-0.0495,-0.0507,-0.0518,0,0,0,0,0,-0.0288,-0.0297,-0.0295,-0.0296,-0.0293,-0.0288,-0.0287,-0.029,-0.0302,-0.0308,-0.0321,-0.0314,-0.0344,-0.0328,-0.0328,-0.0393,-0.0362,-0.0365,-0.0368,-0.049,-0.0505,-0.0518,0,0,0,0,0,0,-0.0299,-0.0299,-0.0297,-0.0305,-0.03,-0.029,-0.0299,-0.0301,-0.0314,-0.0326,-0.0323,-0.0325,-0.0371,-0.0349,-0.0332,-0.041,-0.0355,-0.0358,-0.0448,-0.0462,-0.0473,-0.0489,-0.0317,0,0,0,0,0,-0.0303,-0.0309,-0.0304,-0.0307,-0.0313,-0.0309,-0.0311,-0.0312,-0.0319,-0.0326,-0.0338,-0.0352,-0.0378,-0.0393,-0.0398,-0.0434,-0.0404,-0.0474,-0.0485,-0.0495,-0.0507,-0.0516,-0.053,-0.0379,-0.0379,-0.0379,0,0,-0.0302,-0.0306,-0.0306,-0.0309,-0.0311,-0.0316,-0.0313,-0.0323,-0.0334,-0.0326,-0.0363,-0.039,-0.0392,-0.0443,-0.0462,-0.0438,-0.052,-0.0499,-0.0508,-0.0514,-0.0521,-0.0536,-0.0549,-0.0381,-0.0381,-0.038,0,0,-0.0307,-0.0316,-0.0325,-0.0331,-0.0338,-0.0332,-0.034,-0.035,-0.0366,-0.0397,-0.041,-0.0469,-0.049,-0.0522,-0.0536,-0.0605,-0.0576,-0.0617,-0.07,-0.071,-0.0723,-0.0734,-0.0705,-0.0713,-0.0629,-0.0629,-0.0629,0,-0.0311,-0.0318,-0.0325,-0.0342,-0.0347,-0.0344,-0.0354,-0.0365,-0.0382,-0.0404,-0.0423,-0.0513,-0.0529,-0.0603,-0.0655,-0.0636,-0.0624,-0.0655,-0.0728,-0.0738,-0.0747,-0.0715,-0.0721,-0.0636,-0.0635,-0.0634,-0.0634,0,-0.0316,-0.0333,-0.0343,-0.0359,-0.0366,-0.0374,-0.0388,-0.0408,-0.0439,-0.046,-0.0549,-0.0599,-0.0664,-0.0692,-0.0711,-0.0802,-0.0765,-0.074,-0.0699,-0.0771,-0.0731,-0.0736,-0.0645,-0.0643,-0.0641,-0.0639,0,0,-0.0297,-0.0337,-0.0341,-0.0354,-0.0378,-0.0378,-0.041,-0.0431,-0.0454,-0.0532,-0.0589,-0.0707,-0.0774,-0.0796,-0.0843,-0.088,-0.0955,-0.0868,-0.0866,-0.085,-0.0964,-0.0792,-0.0779,-0.0957,-0.0959,-0.096,-0.0906,0,-0.0296,-0.0318,-0.0343,-0.0363,-0.0376,-0.0399,-0.0419,-0.0448,-0.0489,-0.0542,-0.0644,-0.0726,-0.0799,-0.0875,-0.0934,-0.095,-0.0976,-0.0971,-0.0886,-0.0883,-0.0732,-0.0782,-0.0966,-0.0909,-0.091,-0.0911,-0.0911,0,-0.0293,-0.0306,-0.0331,-0.0363,-0.0372,-0.0389,-0.0419,-0.0444,-0.0514,-0.0569,-0.0696,-0.0766,-0.0906,-0.0929,-0.1023,-0.1025,-0.1022,-0.1013,-0.101,-0.0808,-0.072,-0.0822,-0.0919,-0.0918,-0.0918,-0.0917,-0.0917,0,-0.0261,-0.0297,-0.0311,-0.0326,-0.0365,-0.0389,-0.0406,-0.0458,-0.0486,-0.0611,-0.0655,-0.0815,-0.0896,-0.096,-0.0998,-0.1034,-0.1014,-0.1038,-0.0862,-0.0847,-0.0961,-0.0949,-0.1062,-0.1062,-0.1062,-0.1062,-0.1062,0,-0.0251,-0.0263,-0.0302,-0.0317,-0.0324,-0.0375,-0.04,-0.0446,-0.0519,-0.0539,-0.0696,-0.0721,-0.0914,-0.0929,-0.0975,-0.0916,-0.0998,-0.0879,-0.083,-0.1013,-0.1009,-0.0962,-0.0952,-0.106,-0.106,-0.1061,-0.1061,0,-0.0227,-0.0254,-0.0274,-0.0313,-0.032,-0.0336,-0.0381,-0.0394,-0.0482,-0.0516,-0.0575,-0.0678,-0.0699,-0.0788,-0.0834,-0.084,-0.0815,-0.0749,-0.0899,-0.0858,-0.0656,-0.0653,-0.0606,-0.0599,-0.0594,-0.059,-0.0586,0,-0.0218,-0.0232,-0.0258,-0.0257,-0.0282,-0.0304,-0.0305,-0.0382,-0.0393,-0.0439,-0.0435,-0.0483,-0.0538,-0.0472,-0.0565,-0.0598,-0.0588,-0.0592,-0.0701,-0.0656,-0.0615,-0.062,-0.0624,-0.0577,-0.0576,-0.0574,-0.0573,0,-0.0204,-0.0221,-0.023,-0.0223,-0.023,-0.0216,-0.0228,-0.0233,-0.0297,-0.0361,-0.0318,-0.0339,-0.03,-0.0361,-0.0363,-0.0386,-0.0629,-0.0537,-0.0552,-0.0655,-0.0621,-0.0586,-0.0596,-0.0554,-0.0557,-0.0559,-0.056,0,-0.0192,-0.0182,-0.0194,-0.0189,-0.0171,-0.0135,-0.015,-0.0138,-0.0161,-0.023,-0.0168,-0.0195,-0.0245,-0.0233,-0.0217,-0.0246,-0.0289,-0.0349,-0.0375,-0.0396,-0.0355,-0.0284,-0.0073,0,0,0,0,0,-0.0175,-0.0161,-0.0151,-0.0129,-0.0102,-0.0092,-0.009,-0.011,-0.0148,-0.0106,-0.0159,-0.0116,-0.0113,-0.01,-0.0098,-0.0126,-0.0294,-0.0122,-0.0378,-0.0451,-0.0473,-0.0447,0,0,0,0,0,0,-0.0161,-0.015,-0.0145,-0.0082,-0.0048,-0.0009,-0.0006,-0.0031,-0.0012,-0.0058,-0.0049,-0.0089,-0.0082,-0.0112,-0.0087,-0.0092,-0.0248,-0.0139,-0.0137,-0.0439,-0.0459,-0.0476,-0.0456,0,0,0,0,0]},{"header":{"parameterUnit":"m.s-1","parameterCategory":2,"la1":30.2991,"la2":30.254,"lo1":-89.0895,"lo2":-89.0444,"dy":0.0017,"dx":0.0017,"nx":28,"ny":28,"refTime":"2026-02-06T09:00:00:Z","depth":"4","parameterNumber":3,"parameterNumberName":"V-component_of_CURRENTS"},"data":[0,0,0,0,0,0,0,0,0,0,0,0,0,0,0,0,0,0,0,0,0,0,0,0,0,0,0,0,0,0,0,0,0,0,0,0,0,0,0,0,0,0,0,0,0,0,0,0,0,0,0,0,0,0,0,0,0,0,-0.0091,-0.0091,0,-0.0083,-0.0082,-0.0082,-0.0045,-0.0045,-0.0044,-0.0043,0.0021,0.0022,0.0023,0,0,0,0,0,0,0,0,0,0,0,0,0,-0.0086,-0.0086,-0.0091,-0.0091,-0.0091,-0.0083,-0.0082,-0.0082,-0.0046,-0.0045,-0.0043,-0.0042,0.0021,0.0022,0.0023,0,0,0,0,0,0,0,0,0,0,0,0,0,-0.0084,-0.0086,-0.0091,-0.0071,-0.0069,-0.0083,-0.0082,-0.0082,-0.0046,-0.0044,-0.0043,-0.0042,0.0021,0.0022,0.0023,0.0005,0,0,0.0027,0.0028,0,0,0,0,0,0,0,0,-0.0084,-0.0084,-0.0074,-0.0073,-0.0071,-0.0063,-0.0057,-0.005,-0.0046,-0.0055,-0.0043,-0.0041,-0.0003,0.0001,-0.0002,0.0008,0.0011,0.0027,0.0028,0.0029,0.0029,0,0,0,0,0,0,0,-0.0085,-0.0085,-0.0088,-0.0074,-0.0072,-0.0067,-0.0065,-0.0056,-0.0035,-0.0054,-0.0051,-0.0051,-0.0001,-0.0003,0.0,0.0012,0.0027,0.0029,0.0029,0.003,0.0008,0.0006,0,0,0,0,0,0,-0.0086,-0.0085,-0.0088,-0.0087,-0.0074,-0.0068,-0.0066,-0.0067,-0.0037,-0.0031,-0.0052,-0.0049,-0.0006,-0.0002,0.0003,-0.0016,0.0029,0.003,0.0031,0.0009,0.0007,0.0006,0,0,0,0,0,0,-0.0086,-0.0087,-0.0088,-0.0086,-0.0085,-0.0069,-0.0071,-0.0068,-0.0067,-0.0035,-0.0029,-0.0054,-0.0005,0.0001,0.0003,-0.0013,0.0031,0.0032,0.0011,0.0008,0.0006,-0.0055,0,0,0,0,0,0,-0.0086,-0.0087,-0.0092,-0.0086,-0.0086,-0.0099,-0.0072,-0.0069,-0.0068,-0.0065,-0.0035,-0.0028,-0.0004,0.0001,0.0005,-0.0011,0.0033,0.0012,0.001,0.0007,-0.0051,-0.0058,-0.0065,0,0,0,0,0,-0.0086,-0.0101,-0.0092,-0.0092,-0.0092,-0.0099,-0.0099,-0.0083,-0.007,-0.0076,-0.006,-0.0029,-0.0013,0.0001,0.0005,-0.001,0.0014,0.001,0.0007,-0.0048,-0.0057,-0.0065,0,0,0,0,0,0,-0.01,-0.0098,-0.0088,-0.01,-0.01,-0.0093,-0.0097,-0.009,-0.0084,-0.0078,-0.0046,-0.0039,-0.0046,-0.0024,-0.001,-0.0026,0.0005,0.0002,-0.0039,-0.0047,-0.0054,-0.0053,0.0034,0,0,0,0,0,-0.0107,-0.0117,-0.0111,-0.0121,-0.0119,-0.011,-0.0111,-0.0105,-0.0098,-0.0093,-0.0078,-0.0063,-0.0058,-0.0048,-0.0042,-0.0049,-0.0024,-0.0057,-0.0064,-0.007,-0.0068,-0.0027,-0.003,-0.0005,-0.0005,-0.0004,0,0,-0.0117,-0.0115,-0.0122,-0.0125,-0.0119,-0.0135,-0.0107,-0.0115,-0.0137,-0.0088,-0.0109,-0.009,-0.0068,-0.0078,-0.0079,-0.0058,-0.0075,-0.0074,-0.0079,-0.0074,-0.0031,-0.0033,-0.0035,-0.0007,-0.0006,-0.0006,0,0,-0.0143,-0.0138,-0.0153,-0.0158,-0.0157,-0.0156,-0.0161,-0.0161,-0.0164,-0.0182,-0.0157,-0.0154,-0.0142,-0.0136,-0.0128,-0.0175,-0.0119,-0.0163,-0.0189,-0.0151,-0.0151,-0.0152,-0.0165,-0.0166,-0.016,-0.016,-0.016,0,-0.0151,-0.0169,-0.016,-0.0176,-0.0187,-0.0169,-0.0194,-0.0204,-0.0208,-0.0223,-0.0196,-0.0199,-0.0177,-0.0193,-0.0196,-0.0192,-0.016,-0.0156,-0.0157,-0.0157,-0.0156,-0.0169,-0.0169,-0.0163,-0.0163,-0.0162,-0.0162,0,-0.0187,-0.0203,-0.0212,-0.0228,-0.0245,-0.026,-0.0272,-0.0291,-0.029,-0.0301,-0.032,-0.029,-0.0281,-0.0279,-0.0241,-0.0235,-0.0215,-0.0175,-0.0131,-0.0162,-0.0175,-0.0174,-0.0168,-0.0167,-0.0166,-0.0165,0,0,-0.0202,-0.0229,-0.0234,-0.0249,-0.0272,-0.0289,-0.0334,-0.0369,-0.04,-0.0399,-0.0432,-0.0415,-0.0381,-0.0369,-0.0327,-0.0286,-0.0266,-0.0212,-0.0208,-0.0219,-0.0196,-0.0227,-0.0229,-0.0196,-0.0195,-0.0194,-0.0222,0,-0.0226,-0.0258,-0.028,-0.0329,-0.0343,-0.0363,-0.0408,-0.0445,-0.0463,-0.0493,-0.0476,-0.0482,-0.0421,-0.0398,-0.0352,-0.0275,-0.0257,-0.0264,-0.017,-0.0169,-0.0185,-0.0227,-0.0192,-0.0221,-0.022,-0.022,-0.022,0,-0.0255,-0.027,-0.0312,-0.0366,-0.0377,-0.042,-0.0482,-0.0522,-0.057,-0.0582,-0.0584,-0.0553,-0.0516,-0.0446,-0.0348,-0.0338,-0.0273,-0.0221,-0.022,-0.022,-0.0196,-0.0173,-0.0217,-0.0218,-0.0218,-0.0218,-0.0218,0,-0.0252,-0.0301,-0.0333,-0.035,-0.0406,-0.0451,-0.0491,-0.0553,-0.059,-0.0632,-0.0642,-0.0608,-0.0568,-0.0475,-0.0368,-0.033,-0.0267,-0.0212,-0.0208,-0.0212,-0.0145,-0.0143,-0.0161,-0.0161,-0.0161,-0.0161,-0.016,0,-0.0267,-0.0298,-0.0336,-0.0354,-0.0413,-0.046,-0.0532,-0.0578,-0.0635,-0.0666,-0.0669,-0.0649,-0.0551,-0.05,-0.0403,-0.0319,-0.03,-0.0229,-0.0214,-0.0179,-0.0181,-0.0147,-0.0145,-0.0162,-0.0161,-0.0161,-0.0161,0,-0.027,-0.0288,-0.033,-0.0388,-0.0413,-0.0461,-0.055,-0.0592,-0.0649,-0.0684,-0.0687,-0.0668,-0.0582,-0.0538,-0.041,-0.0368,-0.0292,-0.0277,-0.0305,-0.0288,-0.0258,-0.0259,-0.0263,-0.0264,-0.0265,-0.0266,-0.0266,0,-0.0276,-0.029,-0.0344,-0.037,-0.0407,-0.0474,-0.0515,-0.0592,-0.0617,-0.0665,-0.0657,-0.0629,-0.0596,-0.0482,-0.0421,-0.0348,-0.0315,-0.0328,-0.0236,-0.0281,-0.0265,-0.0265,-0.0265,-0.0268,-0.0268,-0.0269,-0.0269,0,-0.0289,-0.0305,-0.0333,-0.0369,-0.0418,-0.047,-0.0523,-0.0541,-0.0602,-0.0644,-0.0601,-0.0578,-0.0521,-0.0437,-0.0432,-0.0352,-0.0342,-0.0337,-0.0332,-0.0245,-0.0287,-0.0271,-0.0269,-0.0272,-0.0272,-0.0271,-0.0271,0,-0.0302,-0.0317,-0.034,-0.0373,-0.0421,-0.0455,-0.0492,-0.0498,-0.0531,-0.0566,-0.0529,-0.0509,-0.0486,-0.0439,-0.0402,-0.0378,-0.0325,-0.0301,-0.0297,-0.0293,-0.0289,-0.0345,-0.0346,0,0,0,0,0,-0.0314,-0.0318,-0.0342,-0.0378,-0.0415,-0.0439,-0.0485,-0.0511,-0.0542,-0.0496,-0.052,-0.0459,-0.0423,-0.04,-0.0367,-0.0412,-0.0342,-0.0378,-0.0316,-0.0291,-0.0287,-0.028,0,0,0,0,0,0,-0.0328,-0.0344,-0.0335,-0.0361,-0.0377,-0.0424,-0.0451,-0.0476,-0.044,-0.0459,-0.0413,-0.0441,-0.038,-0.0414,-0.0352,-0.0354,-0.0311,-0.0367,-0.0367,-0.0294,-0.029,-0.0287,-0.0277,0,0,0,0,0]}]]